{"data":{"norad_id":68777,"intl_designator":"2026-086M","name":"STARLINK-37400","alt_names":[],"object_type":"PAYLOAD","status":"ACTIVE","operator":null,"country":"US","launch_date":"2026-04-19","launch_site_code":"AFWTR","launch_vehicle":null,"mission":null,"orbit_class":"UNKNOWN","rcs_meters":null,"size_class":null,"mass_kg":null,"dimensions":null,"purposes":["comms"],"wikipedia_slug":null,"has_3d_model":false,"image_url":null,"decayed_at":null,"tle_current":{"epoch":"2026-09-19T01:12:33.972480Z","epoch_age_seconds":165391,"freshness":"FRESH","line1":"1 68777U 26086M   26262.05039320  .00015841  00000+0  49181-3 0  9991","line2":"2 68777  97.2844 297.5112 0001681 108.0243 252.1183 15.33455568 23464","mean_motion":15.33455568,"eccentricity":0.0001681,"inclination_deg":97.2844,"raan_deg":297.5112,"arg_perigee_deg":108.0243,"mean_anomaly_deg":252.1183,"bstar":0.00049181,"rev_number":2346,"period_min":93.905557490532,"perigee_km":464.36131437413,"apogee_km":466.66214907773,"semimajor_km":6843.6487317259,"source":"CELESTRAK","updated_at":"2026-09-20T09:00:44.000093Z"}}}